Appleton, WI

5:17 PM CDT on October 20, 2019 (GMT -0500)
Outagamie County Regional

Weather History for KATW - August, 2019

Change the Weather History Date:

Friday, August 23, 2019

  Actual Average Record
Temperature  
Mean Temperature 60 °F -  
Max Temperature 69 °F 77 °F 95 °F (1968)
Min Temperature 51 °F 58 °F 46 °F (1967)
Degree Days  
Heating Degree Days 5    
Growing Degree Days 10 (Base 50)    
Moisture  
Dew Point 48 °F    
Average Humidity 71    
Maximum Humidity 100    
Minimum Humidity 38    
Precipitation  
Precipitation 0.00 in - - ()
Sea Level Pressure  
Sea Level Pressure 30.22 in    
Wind  
Wind Speed 4 mph ()    
Max Wind Speed 10 mph    
Max Gust Speed -    
Visibility 10.0 miles    
Events      
Averages and records for this station are not official NWS values.
T = Trace of Precipitation, MM = Missing Value Source: Averaged Metar Reports

Daily Weather History Graph

Daily Weather History Graph

Search for Another Location

Airport or City:

Astronomy

Aug. 23, 2019 Rise Set
Actual Time 6:06 AM CDT 7:46 PM CDT
Civil Twilight 5:35 AM CDT 8:16 PM CDT
Nautical Twilight 4:58 AM CDT 8:53 PM CDT
Astronomical Twilight 4:18 AM CDT 9:33 PM CDT
Moon 11:56 PM CDT (8/23) 2:00 PM CDT (8/23)
Length of Visible Light 14h 41m
Length of Day
13h 39m
Waning Gibbous, 49% of the Moon is Illuminated
Aug 23
Waning Gibbous
Aug 30
New
Sep 5
First Quarter
Sep 13
Full
Sep 21
Last Quarter

Hourly Weather History & Observations

Time (CDT) Temp. Dew Point Humidity Pressure Visibility Wind Dir Wind Speed Gust Speed Precip Events Conditions
12:15 AM 55.4 °F 46.4 °F 72% 30.15 in 10.0 mi Calm Calm - N/A   Clear
12:35 AM 55.4 °F 46.4 °F 72% 30.16 in 10.0 mi Calm Calm - N/A   Clear
12:55 AM 55.4 °F 46.4 °F 72% 30.16 in 10.0 mi Calm Calm - N/A   Clear
1:15 AM 55.4 °F 46.4 °F 72% 30.16 in 10.0 mi Calm Calm - N/A   Clear
1:35 AM 53.6 °F 46.4 °F 77% 30.16 in 10.0 mi North 3.5 mph - N/A   Clear
1:55 AM 53.6 °F 48.2 °F 82% 30.17 in 10.0 mi North 4.6 mph - N/A   Clear
2:15 AM 53.6 °F 48.2 °F 82% 30.16 in 10.0 mi North 3.5 mph - N/A   Clear
2:35 AM 53.6 °F 48.2 °F 82% 30.17 in 10.0 mi NNE 8.1 mph - N/A   Clear
2:55 AM 53.6 °F 51.8 °F 94% 30.18 in 10.0 mi North 3.5 mph - N/A   Clear
3:15 AM 53.6 °F 50.0 °F 88% 30.19 in 10.0 mi North 4.6 mph - N/A   Clear
3:35 AM 51.8 °F 50.0 °F 94% 30.19 in 10.0 mi North 6.9 mph - N/A   Clear
3:55 AM 51.8 °F 48.2 °F 88% 30.20 in 10.0 mi NNE 6.9 mph - N/A   Clear
4:15 AM 51.8 °F 48.2 °F 88% 30.20 in 10.0 mi NNE 6.9 mph - N/A   Clear
4:35 AM 51.8 °F 46.4 °F 82% 30.20 in 10.0 mi NNE 6.9 mph - N/A   Clear
5:15 AM 51.8 °F 46.4 °F 82% 30.20 in 10.0 mi NNE 6.9 mph - N/A   Clear
5:20 AM 51.8 °F 50.0 °F 94% 30.20 in 10.0 mi NNE 6.9 mph - N/A   Scattered Clouds
5:45 AM 51.8 °F 48.2 °F 88% 30.21 in 10.0 mi NNE 6.9 mph - N/A   Scattered Clouds
6:45 AM 51.8 °F 50.0 °F 94% 30.22 in 10.0 mi NNE 8.1 mph - N/A   Partly Cloudy
7:45 AM 53.6 °F 53.6 °F 100% 30.23 in 10.0 mi NNE 6.9 mph - N/A   Scattered Clouds
8:45 AM 59.0 °F 55.4 °F 88% 30.25 in 10.0 mi ENE 6.9 mph - N/A   Scattered Clouds
9:45 AM 62.6 °F 50.0 °F 63% 30.27 in 10.0 mi ENE 8.1 mph - N/A   Scattered Clouds
10:45 AM 64.4 °F 51.8 °F 64% 30.27 in 10.0 mi NE 8.1 mph - N/A   Scattered Clouds
11:45 AM 66.2 °F 51.8 °F 60% 30.27 in 10.0 mi NNE 5.8 mph - N/A   Mostly Cloudy
12:45 PM 68.0 °F 48.2 °F 49% 30.25 in 10.0 mi NNE 5.8 mph - N/A   Mostly Cloudy
1:45 PM 69.8 °F 48.2 °F 46% 30.25 in 10.0 mi North 6.9 mph - N/A   Mostly Cloudy
2:45 PM 69.8 °F 42.8 °F 38% 30.24 in 10.0 mi North 8.1 mph - N/A   Mostly Cloudy
3:45 PM 69.8 °F 42.8 °F 38% 30.24 in 10.0 mi NNE 10.4 mph - N/A   Mostly Cloudy
4:45 PM 69.8 °F 44.6 °F 40% 30.24 in 10.0 mi NNE 8.1 mph - N/A   Scattered Clouds
5:45 PM 68.0 °F 50.0 °F 52% 30.24 in 10.0 mi ENE 8.1 mph - N/A   Mostly Cloudy
6:45 PM 66.2 °F 50.0 °F 56% 30.24 in 10.0 mi ENE 9.2 mph - N/A   Mostly Cloudy
7:45 PM 66.2 °F 50.0 °F 56% 30.24 in 10.0 mi East 4.6 mph - N/A   Scattered Clouds
8:45 PM 64.4 °F 48.2 °F 56% 30.24 in 10.0 mi East 4.6 mph - N/A   Scattered Clouds
9:45 PM 62.6 °F 46.4 °F 55% 30.27 in 10.0 mi Calm Calm - N/A   Scattered Clouds
10:45 PM 60.8 °F 50.0 °F 68% 30.27 in 10.0 mi Calm Calm - N/A   Clear
10:55 PM 59.0 °F 42.8 °F 55% 30.27 in 10.0 mi Calm Calm - N/A   Clear
11:15 PM 55.4 °F 42.8 °F 63% 30.27 in 10.0 mi Calm Calm - N/A   Clear
11:35 PM 55.4 °F 44.6 °F 67% 30.28 in 10.0 mi Calm Calm - N/A   Clear
11:55 PM 55.4 °F 42.8 °F 63% 30.28 in 10.0 mi Calm Calm - N/A   Clear